This is the latest recevied weather packets stored in our database for station/object N9CQL. If no packets are shown the sender has not sent any weather packets the latest 10 day(s).
| Time | Temp. | Humidity | Pressure | Rain* | Wind** | Luminosity | Snow |
|---|---|---|---|---|---|---|---|
| 1777908668 | 21.67° C | 52% | 1001.2 hPa | 0 mm | - | 59 W/m² | - |
| 1777908365 | 21.67° C | 54% | 1001.5 hPa | 0 mm | - | 58 W/m² | - |
| 1777908061 | 21.11° C | 52% | 1001.3 hPa | 0 mm | - | 141 W/m² | - |
| 1777907756 | 20.56° C | 52% | 1001.4 hPa | 0 mm | - | 335 W/m² | - |
| 1777907451 | 20.56° C | 53% | 1001.4 hPa | 0 mm | - | 65 W/m² | - |
| 1777907149 | 20.56° C | 52% | 1001.6 hPa | 0 mm | - | 57 W/m² | - |
| 1777906846 | 20° C | 54% | 1001.5 hPa | 0 mm | - | 55 W/m² | - |
| 1777906544 | 20° C | 54% | 1001.7 hPa | 0 mm | - | 83 W/m² | - |
| 1777906239 | 19.44° C | 54% | 1001.6 hPa | 0 mm | - | 57 W/m² | - |
| 1777905935 | 19.44° C | 56% | 1001.8 hPa | 0 mm | - | 52 W/m² | - |
| 1777905632 | 18.89° C | 55% | 1001.7 hPa | 0 mm | - | 61 W/m² | - |
| 1777905329 | 18.89° C | 55% | 1001.8 hPa | 0 mm | - | 484 W/m² | - |
| 1777905027 | 18.89° C | 56% | 1001.9 hPa | 0 mm | - | 49 W/m² | - |
| 1777904724 | 18.89° C | 56% | 1001.8 hPa | 0 mm | - | 50 W/m² | - |
| 1777904421 | 18.33° C | 57% | 1002.3 hPa | 0 mm | - | 134 W/m² | - |
| 1777904118 | 18.33° C | 57% | 1002.1 hPa | 0 mm | - | 184 W/m² | - |
| 1777903815 | 17.78° C | 60% | 1002 hPa | 0 mm | - | 309 W/m² | - |
| 1777903511 | 17.78° C | 60% | 1002.1 hPa | 0 mm | - | 95 W/m² | - |
| 1777903208 | 17.22° C | 60% | 1002.1 hPa | 0 mm | - | 65 W/m² | - |
| 1777902904 | 17.22° C | 60% | 1002.2 hPa | 0 mm | - | 141 W/m² | - |
| 1777902601 | 16.67° C | 63% | 1002.5 hPa | 0 mm | - | 80 W/m² | - |
| 1777902298 | 16.67° C | 64% | 1002.4 hPa | 0 mm | - | 52 W/m² | - |
| 1777901995 | 16.11° C | 64% | 1002.6 hPa | 0 mm | - | 91 W/m² | - |
| 1777901694 | 15.56° C | 66% | 1002.7 hPa | 0 mm | - | 73 W/m² | - |
| 1777901390 | 15.56° C | 67% | 1002.7 hPa | 0 mm | - | 39 W/m² | - |
* Rain latest hour (hover to see other rain measurements)
** Current wind speed in m/s (hover to see current wind gust speed)